Terminal Aerodrome Forecast
Issued by NWS

Home | Current Version | Previous Version | Text Only | Print | Product List | Glossary On
Versions: 1 2 3 4 5 6 7 8 9 10 11 12 13 14 15 16 17
000
FTUS41 KLWX 262300
TAFMTN
TAF
KMTN 262330Z 2700/2724 21004KT P6SM FEW250
     FM270200 00000KT P6SM FEW250
      AMD NOT SKED 2702/2712=

USA.gov is the U.S. government's official web portal to all federal, state and local government web resources and services.